Погода в Бамако

Мали     12°37′16″N   8°00′47″W
темп.,
°C
ветер,
м/с
пор.,
м/с
влажн.,
%
обл.,
%
осадки,
мм/ч
давл.,
гПа
погр.,
м
9 августа, вт
вт900:00+24сз1389100 3.9 1012130
03:00+21с71586100 4.2 1013555
06:00+21юз3589100 4.8 1011133
09:00+25зюз237161 0.0 1012268
12:00+30сз235451 0.0 10121090
15:00+32ссз345124 0.0 10101594
18:00+30с356774 0.0 1009127
21:00+26зсз227999 1.4 101235
10 августа, ср
ср1000:00+23зюз4596100 13.6 1013146
03:00+23ю3594100 0.0 1011176
06:00+23ююз1296100 0.0 101263
09:00+24ссв2289100 0.2 1014283
12:00+26ссз3283100 2.3 1013483
15:00+26зсз3380100 1.9 1010564
18:00+24сз2481100 1.9 1010153
21:00+23юз118373 0.0 101111
11 августа, чт
чт1100:00+23юз118596 0.0 101213
03:00+23юз2289100 0.0 101155
06:00+22ююз2589100 0.0 1012198
09:00+24ююз478593 0.1 1014490
12:00+27юз347334 0.3 1013891
15:00+28ююз336995 2.9 1010679
18:00+26юз3482100 9.1 1010208
21:00+24ююз3688100 1.3 1013112
12 августа, пт
пт1200:00+23юз399349 1.6 1013306
03:00+22юз389623 0.0 1012307
06:00+21юз489749 0.0 1013302
09:00+24юз458568 0.0 1015514
12:00+28зюз456785 0.1 10131170
15:00+29з2266100 2.4 10111060
18:00+27зюз2380100 3.8 1011197
21:00+24зюз3389100 1.9 101360
13 августа, сб
сб1300:00+24св2388100 6.0 101374
03:00+23зсз1295100 2.1 101277
06:00+23зюз3794100 2.3 1012264
09:00+23сз4991100 0.4 1015637
12:00+23зсз4992100 1.9 1015534
15:00+22зсз3792100 6.3 1013298
18:00+22зюз2594100 8.6 1014198
21:00+21зюз3597100 4.4 1015202